Other Public Products
Issued by NWS Charleston, SC

Current Version | Previous Version | Text Only | Print | Product List | Glossary Off
Versions: 1 2 3 4 5 6 7 8 9 10 11 12 13 14 15 16 17 18 19 20 21 22 23 24 25 26 27 28 29 30 31 32 33 34 35 36 37 38 39 40 41 42 43 44 45 46 47 48 49 50

000
FPUS82 KCHS 200212
OPUCHS

TEST...KCHS/KSAV Gateway Observations...TEST
National Weather Service Charleston SC
900 PM EST SUN NOV 19 2017

NOTE: "fair" indicates few or no clouds below 12,000 feet with no
significant weather and/or obstructions to visibility.

SCZ050-WAZ558-NCZ071-TXZ119-213-PAZ071-DCZ001-FLZ074-172-MI076-
NYZ176-178-MAZ016-IL014-TNZ027-NJZ106-GAZ044-MD014-200300-

...Gateway Observations for Charleston International...

CITY           SKY/WX    TMP DP  RH WIND       PRES   REMARKS
Chas Airport   CLEAR     48  38  68 N7        30.03R
Seattle        LGT RAIN  42  39  89 S7        29.70F
Charlotte      CLEAR     41  28  60 N5        30.06R
Dallas DFW     CLEAR     52  29  41 S3        30.22S
Dallas Love    CLEAR     51  34  52 CALM      30.24R
Philladelphia  PTCLDY    44  25  47 W15       29.83R
Wash National  MOCLDY    46  28  49 W15G26    29.93R
Baltimore      PTCLDY    40  28  62 W9        29.89R WCI  34
Miami          CLEAR     74  67  78 W3        29.96R
Detroit        CLOUDY    31  19  61 W16G23    29.98R WCI  20
Newark         LGT RAIN  41  34  76 W8G20     29.75R
Laguardia      CLOUDY    46  27  47 W14G23    29.73R
J F K          CLOUDY    46  27  47 W12       29.75R
Boston Logan   PTCLDY    40  23  50 W24G35    29.59R WCI  29
Ft. Lauderdale CLEAR     74  64  71 W5        29.95R
Chicago O`Hare CLEAR     31  21  66 W10       30.06S WCI  22
Chicago Midway CLEAR     31  21  66 W9        30.08S WCI  23
Houston Bush   MOCLDY    50  38  63 CALM      30.25R
Houston Hobby  CLOUDY    56  34  43 N6        30.24R
Nashville      CLEAR     38  23  55 CALM      30.22R
Atlanta        CLEAR     43  31  62 NW8       30.11S

$$

GAZ044-118-TXZ119-213-NCZ071-DCZ001-MDZ014-506-PAZ021-071-NJZ106-
NYZ176-178-MAZ106-OHZ011-021-055-MIZ076-KYZ091-ILZ014-INZ047-
MNZ060-ONZ431-200300-

...Gateway Observations for Savannah International...

CITY           SKY/WX    TMP DP  RH WIND       PRES   REMARKS
Savannah Arpt  CLEAR     50  35  56 NW7       30.06R
Atlanta        CLEAR     43  31  62 NW8       30.11S
Charlotte      CLEAR     41  28  60 N5        30.06R
Dallas DFW     CLEAR     52  29  41 S3        30.22S
Houston Bush   MOCLDY    50  38  63 CALM      30.25R
Wash National  MOCLDY    46  28  49 W15G26    29.93R
Wash Dulles    CLOUDY    43  29  57 W14       29.93R
Baltimore      PTCLDY    40  28  62 W9        29.89R WCI  34
Philadelphia   PTCLDY    44  25  47 W15       29.83R
Newark         LGT RAIN  41  34  76 W8G20     29.75R
Laguardia      CLOUDY    46  27  47 W14G23    29.73R
J F K          CLOUDY    46  27  47 W12       29.75R
Boston         PTCLDY    40  23  50 W24G35    29.59R WCI  29
Pittsburg      CLOUDY    33  25  72 W18G28    29.95R WCI  22
Akron          FLURRIES  33  24  69 W10       29.98R WCI  25
Cleveland      FLURRIES  34  25  69 W15       30.00R WCI  24
Cincinnati     CLEAR     28  25  88 W5        30.13S WCI  23
Columbus       CLOUDY    31  20  64 NW13G23   30.10S WCI  21
Detroit        CLOUDY    31  19  61 W16G23    29.98R WCI  20
Chicago O`Hare CLEAR     31  21  66 W10       30.06S WCI  22
Minneapolis    CLOUDY    38  26  62 SW6       29.84F WCI  33
Indianapolis   CLEAR     27  22  81 SW8       30.14R WCI  19
Toronto Canada SNOWSHWR  28  19  69 NW15      29.82R WCI  17

$$




USA.gov is the U.S. government's official web portal to all federal, state and local government web resources and services.